Weather History for Newark, NJ

Change the Weather History Date:

Wednesday, September 24, 2014

  Actual Average Record
Temperature  
Mean Temperature 64 °F 65 °F  
Max Temperature 72 °F 74 °F 92 °F (1959)
Min Temperature 55 °F 56 °F 40 °F (1950)
Degree Days  
Heating Degree Days 1 3  
Month to date heating degree days 16 22  
Since 1 July heating degree days 16 23  
Cooling Degree Days 0 2  
Month to date cooling degree days 144 127  
Year to date cooling degree days 1129 1161  
Growing Degree Days 14 (Base 50)    
Moisture  
Dew Point 52 °F    
Average Humidity 65    
Maximum Humidity 86    
Minimum Humidity 44    
Precipitation  
Precipitation 0.00 in 0.14 in 2.58 in (1946)
Month to date precipitation 1.18 2.99  
Year to date precipitation 35.80 34.36  
Snow  
Snow 0.00 in 0.00 in 0.00 in (2002)
Month to date snowfall 0.0 0.0  
Since 1 July snowfall 0.0 0.0  
Snow Depth 0.00 in    
Sea Level Pressure  
Sea Level Pressure 30.50 in    
Wind  
Wind Speed 8 mph (ENE)    
Max Wind Speed 14 mph    
Max Gust Speed 21 mph    
Visibility 10 miles    
Events      
T = Trace of Precipitation, MM = Missing Value Source: NWS Daily Summary

Daily Weather History Graph

Daily Weather History Graph

Search for Another Location

Airport:

Trip Planner

Search our weather history database for the weather conditions in past years. The results will help you decide how hot, cold, wet, or windy it might be!

Date:

Astronomy

Sep. 24, 2014 Rise Set
Actual Time 6:46 AM EDT 6:50 PM EDT
Civil Twilight 6:18 AM EDT 7:17 PM EDT
Nautical Twilight 5:46 AM EDT 7:49 PM EDT
Astronomical Twilight 5:14 AM EDT 8:21 PM EDT
Moon 7:04 AM EDT (9/24) 6:59 PM EDT (9/24)
Length of Visible Light 12h 58m
Length of Day
12h 04m
New Moon, 0% of the Moon is Illuminated
Sep 24
New Moon
Oct 1
First Quarter
Oct 8
Full
Oct 15
Last Quarter
Oct 23
New

Hourly Weather History & Observations

Time (EDT) Temp. Dew Point Humidity Pressure Visibility Wind Dir Wind Speed Gust Speed Precip Events Conditions
12:51 AM 59.0 °F 51.1 °F 75% 30.43 in 10.0 mi Calm Calm - N/A   Clear
1:51 AM 59.0 °F 51.1 °F 75% 30.44 in 10.0 mi Calm Calm - N/A   Partly Cloudy
2:51 AM 57.9 °F 52.0 °F 81% 30.44 in 10.0 mi Calm Calm - N/A   Partly Cloudy
3:51 AM 57.0 °F 52.0 °F 83% 30.44 in 10.0 mi NNE 3.5 mph - N/A   Scattered Clouds
4:51 AM 55.9 °F 52.0 °F 87% 30.46 in 10.0 mi North 8.1 mph - N/A   Scattered Clouds
5:51 AM 55.9 °F 52.0 °F 87% 30.46 in 10.0 mi NNE 9.2 mph - N/A   Scattered Clouds
6:51 AM 55.9 °F 52.0 °F 87% 30.49 in 10.0 mi NNE 8.1 mph - N/A   Scattered Clouds
7:51 AM 57.0 °F 52.0 °F 83% 30.51 in 10.0 mi North 10.4 mph - N/A   Mostly Cloudy
8:51 AM 61.0 °F 53.1 °F 75% 30.53 in 10.0 mi North 9.2 mph - N/A   Mostly Cloudy
9:51 AM 64.9 °F 54.0 °F 68% 30.54 in 10.0 mi NE 6.9 mph - N/A   Mostly Cloudy
10:51 AM 68.0 °F 54.0 °F 61% 30.55 in 10.0 mi ENE 8.1 mph - N/A   Mostly Cloudy
11:51 AM 70.0 °F 54.0 °F 57% 30.55 in 10.0 mi ENE 10.4 mph 16.1 mph N/A   Mostly Cloudy
12:51 PM 71.1 °F 52.0 °F 51% 30.55 in 10.0 mi East 6.9 mph 16.1 mph N/A   Mostly Cloudy
1:51 PM 71.1 °F 53.1 °F 53% 30.54 in 10.0 mi East 6.9 mph - N/A   Mostly Cloudy
2:51 PM 70.0 °F 48.0 °F 46% 30.53 in 10.0 mi ESE 10.4 mph 18.4 mph N/A   Overcast
3:51 PM 71.6 °F 48.2 °F 43% 30.52 in 10.0 mi ESE 10.4 mph 17.3 mph N/A   Mostly Cloudy
4:51 PM 69.1 °F 50.0 °F 51% 30.52 in 10.0 mi ESE 10.4 mph 18.4 mph N/A   Overcast
5:51 PM 69.1 °F 48.9 °F 49% 30.52 in 10.0 mi East 11.5 mph - N/A   Overcast
6:51 PM 68.0 °F 48.9 °F 50% 30.52 in 10.0 mi ENE 10.4 mph 17.3 mph N/A   Overcast
7:51 PM 66.9 °F 53.1 °F 61% 30.52 in 10.0 mi ENE 8.1 mph - N/A   Mostly Cloudy
8:51 PM 66.0 °F 55.0 °F 68% 30.51 in 10.0 mi ENE 10.4 mph - N/A   Overcast
9:51 PM 66.0 °F 54.0 °F 65% 30.50 in 10.0 mi East 10.4 mph - N/A   Overcast
10:51 PM 66.0 °F 53.1 °F 63% 30.49 in 10.0 mi ENE 8.1 mph 20.7 mph N/A   Overcast
11:51 PM 64.9 °F 53.1 °F 65% 30.47 in 10.0 mi ENE 10.4 mph 17.3 mph N/A   Overcast